Simultaneous Nadir Overpasses (SNOs) Predictions

Prediction of SNOs between GOES-15 and FY3D Satellite Orbit:

Table of predicted SNOs for the next 14.0 days since TLE Epoch: 11/2/2024
Index Date Time (GOES-15) GOES-15 Lat,Lon FY3D Lat,Lon Distance(km) Time Diff (sec)
1 11/04/2024 10:36:28 -0.04, 61.48 -0.07, 61.44 5.98 80
2 11/06/2024 22:42:21 0.02, 61.44 0.16, 60.70 84.15 80
3 11/07/2024 22:21:00 0.04, 61.47 -0.84, 65.24 430.58 80
4 11/09/2024 10:43:00 -0.01, 61.58 -0.37, 59.96 184.74 80
5 11/10/2024 10:26:59 -0.02, 61.60 0.65, 64.49 330.69 80
6 11/11/2024 22:48:52 -0.01, 61.54 0.51, 59.24 262.45 80
7 11/12/2024 22:27:31 0.01, 61.56 -0.52, 63.77 252.23 80
8 11/14/2024 10:49:30 0.02, 61.70 -0.70, 58.50 364.83 80
9 11/15/2024 10:33:28 0.00, 61.72 0.29, 63.04 150.29 80
